When you browse on this site, cookies collect data to enhance your experience and personalize the content and advertising you see.
Visit our Privacy Policy to learn more. By continuing to use the site, you agree to this use of cookies and data.
EN

Hourly Weather Abbiategrasso

Today, 8 August, Saturday

Time Temperature Precipitation Wind Pressure Humidity
00:00 +26°C° 0 mm 1 mps 755 mmHg 64%
01:00 +25°C° 0 mm 1 mps 756 mmHg 64%
02:00 +25°C° 0 mm 1 mps 755 mmHg 66%
03:00 +24°C° 0 mm 1 mps 755 mmHg 68%
04:00 +24°C° 0 mm 1 mps 755 mmHg 70%
05:00 +24°C° 0 mm 1 mps 755 mmHg 69%
06:00 +25°C° 0 mm 1 mps 755 mmHg 68%
07:00 +25°C° 0 mm 1 mps 755 mmHg 67%
08:00 +27°C° 0 mm 1 mps 755 mmHg 61%
09:00 +29°C° 0 mm 1 mps 755 mmHg 55%
10:00 +31°C° 0 mm 1 mps 755 mmHg 49%
11:00 +32°C° 0 mm 1 mps 755 mmHg 45%
12:00 +33°C° 0 mm 1 mps 754 mmHg 40%
13:00 +35°C° 0 mm 2 mps 754 mmHg 36%
14:00 +35°C° 0 mm 2 mps 754 mmHg 36%
15:00 +35°C° 0 mm 2 mps 754 mmHg 36%
16:00 +35°C° 0 mm 3 mps 754 mmHg 36%
17:00 +34°C° 0 mm 2 mps 754 mmHg 41%
18:00 +32°C° 0 mm 2 mps 754 mmHg 46%
19:00 +30°C° 0 mm 1 mps 754 mmHg 50%
20:00 +29°C° 0 mm 1 mps 754 mmHg 51%
21:00 +28°C° 0 mm 1 mps 754 mmHg 52%
22:00 +27°C° 0 mm 1 mps 754 mmHg 53%
23:00 +27°C° 0 mm 1 mps 754 mmHg 55%

Tomorrow, 9 August, Sunday

Time Temperature Precipitation Wind Pressure Humidity
00:00 +26°C° 0 mm 1 mps 754 mmHg 58%
01:00 +26°C° 0 mm 1 mps 754 mmHg 60%
02:00 +25°C° 0 mm 1 mps 754 mmHg 62%
03:00 +25°C° 0 mm 1 mps 754 mmHg 64%
04:00 +24°C° 0 mm 1 mps 754 mmHg 65%
05:00 +25°C° 0 mm 1 mps 754 mmHg 65%
06:00 +25°C° 0 mm 1 mps 754 mmHg 65%
07:00 +25°C° 0 mm 1 mps 753 mmHg 64%
08:00 +28°C° 0 mm 1 mps 753 mmHg 59%
09:00 +30°C° 0 mm 1 mps 753 mmHg 53%
10:00 +32°C° 0 mm 1 mps 753 mmHg 47%
11:00 +33°C° 0 mm 1 mps 753 mmHg 43%
12:00 +34°C° 0 mm 1 mps 752 mmHg 40%
13:00 +36°C° 0 mm 2 mps 752 mmHg 36%
14:00 +36°C° 0 mm 2 mps 752 mmHg 36%
15:00 +36°C° 0 mm 2 mps 751 mmHg 36%
16:00 +36°C° 0 mm 2 mps 751 mmHg 36%
17:00 +35°C° 0 mm 2 mps 751 mmHg 41%
18:00 +32°C° 0 mm 2 mps 751 mmHg 46%
19:00 +31°C° 0 mm 1 mps 751 mmHg 51%
20:00 +30°C° 0 mm 1 mps 751 mmHg 53%
21:00 +29°C° 0 mm 1 mps 752 mmHg 54%
22:00 +28°C° 0 mm 1 mps 752 mmHg 56%
23:00 +27°C° 0 mm 1 mps 752 mmHg 57%

Day after tomorrow, 10 August, Monday

Time Temperature Precipitation Wind Pressure Humidity
00:00 +27°C° 0 mm 1 mps 752 mmHg 58%
01:00 +26°C° 0 mm 1 mps 752 mmHg 59%
02:00 +26°C° 0 mm 1 mps 752 mmHg 61%
03:00 +25°C° 0 mm 1 mps 752 mmHg 63%
04:00 +25°C° 0 mm 1 mps 752 mmHg 64%
05:00 +25°C° 0 mm 1 mps 751 mmHg 64%
06:00 +25°C° 0 mm 1 mps 751 mmHg 64%
07:00 +26°C° 0 mm 1 mps 751 mmHg 63%
08:00 +27°C° 0 mm 1 mps 751 mmHg 58%
09:00 +29°C° 0 mm 1 mps 751 mmHg 53%
10:00 +31°C° 0 mm 1 mps 752 mmHg 48%
11:00 +32°C° 0 mm 2 mps 751 mmHg 45%
12:00 +34°C° 0 mm 2 mps 751 mmHg 43%
13:00 +35°C° 0 mm 2 mps 751 mmHg 41%
14:00 +35°C° 0 mm 2 mps 751 mmHg 41%
15:00 +35°C° 0 mm 2 mps 751 mmHg 40%
16:00 +35°C° 0 mm 2 mps 750 mmHg 40%
17:00 +34°C° 0 mm 2 mps 750 mmHg 45%
18:00 +32°C° 0 mm 1 mps 750 mmHg 49%
19:00 +31°C° 0 mm 1 mps 750 mmHg 54%
20:00 +30°C° 0 mm 1 mps 751 mmHg 56%
21:00 +29°C° 0 mm 1 mps 751 mmHg 58%
22:00 +28°C° 0 mm 1 mps 752 mmHg 60%
23:00 +27°C° 0 mm 1 mps 752 mmHg 62%

11 August, Tuesday

Time Temperature Precipitation Wind Pressure Humidity
00:00 +27°C° 0 mm 1 mps 752 mmHg 63%
01:00 +26°C° 0 mm 1 mps 752 mmHg 65%
02:00 +25°C° 0 mm 1 mps 752 mmHg 66%
03:00 +25°C° 0 mm 1 mps 752 mmHg 68%
04:00 +25°C° 0 mm 1 mps 751 mmHg 69%
05:00 +25°C° 0.2 mm 1 mps 751 mmHg 69%
06:00 +25°C° 0.2 mm 1 mps 751 mmHg 69%
07:00 +26°C° 0.2 mm 1 mps 751 mmHg 69%
08:00 +27°C° 0.2 mm 1 mps 752 mmHg 64%
09:00 +29°C° 0.2 mm 1 mps 752 mmHg 60%
10:00 +30°C° 0.2 mm 1 mps 752 mmHg 55%
11:00 +31°C° 0 mm 1 mps 752 mmHg 51%
12:00 +33°C° 0 mm 1 mps 751 mmHg 47%
13:00 +35°C° 0 mm 2 mps 751 mmHg 44%
14:00 +35°C° 0 mm 2 mps 751 mmHg 42%
15:00 +35°C° 0 mm 2 mps 751 mmHg 41%
16:00 +35°C° 0 mm 1 mps 751 mmHg 39%
17:00 +34°C° 0 mm 1 mps 751 mmHg 44%
18:00 +32°C° 0 mm 1 mps 751 mmHg 48%
19:00 +31°C° 0 mm 1 mps 751 mmHg 52%
20:00 +30°C° 0.1 mm 1 mps 751 mmHg 55%
21:00 +28°C° 0.1 mm 1 mps 751 mmHg 59%
22:00 +27°C° 0.1 mm 1 mps 752 mmHg 62%
23:00 +26°C° 0.6 mm 1 mps 752 mmHg 64%

12 August, Wednesday

Time Temperature Precipitation Wind Pressure Humidity
00:00 +26°C° 0.6 mm 1 mps 752 mmHg 67%
01:00 +25°C° 0.6 mm 1 mps 752 mmHg 69%
02:00 +25°C° 0 mm 1 mps 752 mmHg 70%
03:00 +24°C° 0 mm 1 mps 751 mmHg 71%
04:00 +24°C° 0 mm 1 mps 751 mmHg 72%
05:00 +24°C° 0 mm 1 mps 751 mmHg 72%
06:00 +25°C° 0 mm 1 mps 751 mmHg 71%
07:00 +25°C° 0 mm 1 mps 751 mmHg 70%
08:00 +27°C° 0 mm 1 mps 751 mmHg 64%
09:00 +29°C° 0 mm 1 mps 751 mmHg 58%
10:00 +31°C° 0 mm 1 mps 751 mmHg 52%
11:00 +32°C° 0 mm 1 mps 751 mmHg 50%
12:00 +34°C° 0 mm 2 mps 751 mmHg 47%
13:00 +35°C° 0 mm 2 mps 751 mmHg 44%
14:00 +35°C° 0 mm 2 mps 751 mmHg 44%
15:00 +35°C° 0 mm 2 mps 750 mmHg 43%
16:00 +36°C° 0 mm 2 mps 750 mmHg 42%
17:00 +34°C° 0 mm 2 mps 750 mmHg 47%
18:00 +32°C° 0 mm 2 mps 750 mmHg 51%
19:00 +31°C° 0 mm 2 mps 750 mmHg 56%
20:00 +30°C° 0.3 mm 2 mps 751 mmHg 60%
21:00 +29°C° 0.3 mm 1 mps 751 mmHg 63%
22:00 +27°C° 0.3 mm 1 mps 752 mmHg 66%
23:00 +27°C° 0.3 mm 1 mps 752 mmHg 68%

13 August, Thursday

Time Temperature Precipitation Wind Pressure Humidity
00:00 +26°C° 0.3 mm 1 mps 752 mmHg 70%
01:00 +26°C° 0.3 mm 1 mps 752 mmHg 71%
02:00 +25°C° 0.4 mm 1 mps 752 mmHg 73%
03:00 +25°C° 0.4 mm 1 mps 751 mmHg 74%
04:00 +24°C° 0.4 mm 1 mps 751 mmHg 76%
05:00 +24°C° 0.3 mm 1 mps 751 mmHg 76%
06:00 +25°C° 0.3 mm 1 mps 751 mmHg 76%
07:00 +25°C° 0.3 mm 1 mps 751 mmHg 75%
08:00 +27°C° 0 mm 1 mps 751 mmHg 70%
09:00 +28°C° 0 mm 1 mps 751 mmHg 64%
10:00 +30°C° 0 mm 1 mps 751 mmHg 58%
11:00 +31°C° 0 mm 1 mps 751 mmHg 54%
12:00 +32°C° 0 mm 1 mps 751 mmHg 50%
13:00 +34°C° 0 mm 1 mps 751 mmHg 46%
14:00 +34°C° 0 mm 1 mps 750 mmHg 45%
15:00 +35°C° 0 mm 2 mps 750 mmHg 44%
16:00 +35°C° 0 mm 2 mps 750 mmHg 43%
17:00 +33°C° 0 mm 1 mps 750 mmHg 48%
18:00 +32°C° 0 mm 1 mps 750 mmHg 52%
19:00 +31°C° 0 mm 1 mps 750 mmHg 57%
20:00 +29°C° 0.8 mm 1 mps 750 mmHg 62%
21:00 +28°C° 0.8 mm 1 mps 751 mmHg 66%
22:00 +26°C° 0.8 mm 2 mps 751 mmHg 71%
23:00 +26°C° 1.4 mm 2 mps 751 mmHg 74%
Show more